Time,TemperatureF,DewpointF,PressureIn,WindDirection,WindDirectionDegrees,WindSpeedMPH,WindSpeedGustMPH,Humidity,HourlyPrecipIn,Conditions,Clouds,dailyrainin,SolarRadiationWatts/m^2,SoftwareType,DateUTC
2013-05-28 00:01:00,55.6,53.6,29.77,East,80,6.0,10.0,93,0.00,,---,0.13,0.00,VWS V14.01,2013-05-28 05:01:00,
2013-05-28 00:06:00,55.6,53.6,29.77,East,88,8.0,11.0,93,0.00,,---,0.00,0.00,VWS V14.01,2013-05-28 05:06:00,
2013-05-28 00:11:00,55.6,53.6,29.77,East,90,6.0,11.0,93,0.00,,---,0.00,0.00,VWS V14.01,2013-05-28 05:11:00,
2013-05-28 00:16:00,55.6,53.6,29.77,East,94,8.0,12.0,93,0.00,,---,0.00,0.00,VWS V14.01,2013-05-28 05:16:00,
2013-05-28 00:21:00,55.6,53.6,29.76,East,80,5.0,12.0,93,0.00,,---,0.00,0.00,VWS V14.01,2013-05-28 05:21:00,
2013-05-28 00:26:00,55.5,53.5,29.77,East,91,4.0,12.0,93,0.00,,---,0.00,0.00,VWS V14.01,2013-05-28 05:26:00,
2013-05-28 00:31:00,55.5,53.8,29.76,East,86,8.0,12.0,94,0.00,,---,0.00,0.00,VWS V14.01,2013-05-28 05:31:00,
2013-05-28 00:36:00,55.5,53.8,29.76,East,88,5.0,10.0,94,0.00,,---,0.00,0.00,VWS V14.01,2013-05-28 05:36:00,
2013-05-28 00:41:00,55.5,53.8,29.75,East,80,9.0,13.0,94,0.00,,---,0.00,0.00,VWS V14.01,2013-05-28 05:41:00,
2013-05-28 00:46:00,55.4,53.7,29.75,East,89,6.0,13.0,94,0.00,,---,0.00,0.00,VWS V14.01,2013-05-28 05:46:00,
2013-05-28 00:51:00,55.4,53.7,29.74,East,86,8.0,12.0,94,0.00,,---,0.00,0.00,VWS V14.01,2013-05-28 05:51:00,
2013-05-28 00:56:00,55.4,53.7,29.74,East,81,5.0,12.0,94,0.00,,---,0.00,0.00,VWS V14.01,2013-05-28 05:56:00,
2013-05-28 01:01:00,55.3,53.6,29.74,East,80,6.0,12.0,94,0.00,,---,0.00,0.00,VWS V14.01,2013-05-28 06:01:00,
2013-05-28 01:06:00,55.3,53.6,29.74,East,89,8.0,10.0,94,0.00,,---,0.00,0.00,VWS V14.01,2013-05-28 06:06:00,
2013-05-28 01:11:00,55.3,53.6,29.74,East,90,6.0,10.0,94,0.00,,---,0.00,0.00,VWS V14.01,2013-05-28 06:11:00,
2013-05-28 01:16:00,55.3,53.6,29.74,East,79,4.0,11.0,94,0.00,,---,0.00,0.00,VWS V14.01,2013-05-28 06:16:00,
2013-05-28 01:21:00,55.2,53.5,29.73,ENE,67,11.0,11.0,94,0.00,,---,0.00,0.00,VWS V14.01,2013-05-28 06:21:00,
2013-05-28 01:26:00,55.2,53.5,29.72,ENE,77,8.0,11.0,94,0.00,,---,0.00,0.00,VWS V14.01,2013-05-28 06:26:00,
2013-05-28 01:31:00,55.2,53.5,29.73,East,86,3.0,11.0,94,0.00,,---,0.00,0.00,VWS V14.01,2013-05-28 06:31:00,
2013-05-28 01:36:00,55.2,53.5,29.73,East,84,5.0,10.0,94,0.00,,---,0.00,0.00,VWS V14.01,2013-05-28 06:36:00,
2013-05-28 01:41:00,55.2,53.5,29.73,East,84,6.0,10.0,94,0.00,,---,0.00,0.00,VWS V14.01,2013-05-28 06:41:00,
2013-05-28 01:46:00,55.2,53.5,29.74,ENE,68,5.0,10.0,94,0.00,,---,0.00,0.00,VWS V14.01,2013-05-28 06:46:00,
2013-05-28 01:51:00,55.2,53.5,29.74,East,90,0.0,0.0,94,0.00,,---,0.00,0.00,VWS V14.01,2013-05-28 06:51:00,
2013-05-28 01:56:00,55.2,53.5,29.73,East,87,4.0,6.0,94,0.00,,---,0.00,0.00,VWS V14.01,2013-05-28 06:56:00,
2013-05-28 02:01:00,55.2,53.5,29.73,East,84,0.0,6.0,94,0.00,,---,0.00,0.00,VWS V14.01,2013-05-28 07:01:00,
2013-05-28 02:06:00,55.2,53.5,29.72,East,90,5.0,6.0,94,0.00,,---,0.00,0.00,VWS V14.01,2013-05-28 07:06:00,
2013-05-28 02:11:00,55.2,53.5,29.73,East,84,0.0,8.0,94,0.00,,---,0.00,0.00,VWS V14.01,2013-05-28 07:11:00,
2013-05-28 02:16:00,55.2,53.5,29.73,East,94,5.0,10.0,94,0.00,,---,0.00,0.00,VWS V14.01,2013-05-28 07:16:00,
2013-05-28 02:21:00,55.2,53.5,29.72,East,91,6.0,10.0,94,0.00,,---,0.00,0.00,VWS V14.01,2013-05-28 07:21:00,
2013-05-28 02:26:00,55.3,53.6,29.72,East,87,6.0,10.0,94,0.00,,---,0.00,0.00,VWS V14.01,2013-05-28 07:26:00,
2013-05-28 02:31:00,55.2,53.5,29.71,East,85,6.0,12.0,94,0.00,,---,0.00,0.00,VWS V14.01,2013-05-28 07:31:00,
2013-05-28 02:36:00,55.2,53.5,29.70,East,90,5.0,7.0,94,0.00,,---,0.00,0.00,VWS V14.01,2013-05-28 07:36:00,
2013-05-28 02:41:00,55.1,53.7,29.71,East,90,5.0,12.0,95,0.00,,---,0.00,0.00,VWS V14.01,2013-05-28 07:41:00,
2013-05-28 02:46:00,55.2,53.8,29.72,East,81,0.0,12.0,95,0.00,,---,0.00,0.00,VWS V14.01,2013-05-28 07:46:00,
2013-05-28 02:51:00,55.1,53.7,29.71,East,90,3.0,8.0,95,0.00,,---,0.00,0.00,VWS V14.01,2013-05-28 07:51:00,
2013-05-28 02:56:00,55.1,53.7,29.71,East,90,3.0,10.0,95,0.00,,---,0.00,0.00,VWS V14.01,2013-05-28 07:56:00,
2013-05-28 03:01:00,55.1,53.7,29.72,East,94,2.0,10.0,95,0.00,,---,0.00,0.00,VWS V14.01,2013-05-28 08:01:00,
2013-05-28 03:06:00,55.2,53.8,29.72,ESE,105,4.0,10.0,95,0.00,,---,0.00,0.00,VWS V14.01,2013-05-28 08:06:00,
2013-05-28 03:11:00,55.2,53.8,29.72,East,97,0.0,10.0,95,0.00,,---,0.00,0.00,VWS V14.01,2013-05-28 08:11:00,
2013-05-28 03:17:00,55.1,53.7,29.72,East,90,0.0,10.0,95,0.00,,---,0.00,0.00,VWS V14.01,2013-05-28 08:17:00,
2013-05-28 03:22:00,55.2,53.8,29.72,East,96,0.0,3.0,95,0.00,,---,0.00,0.00,VWS V14.01,2013-05-28 08:22:00,
2013-05-28 03:27:00,55.1,53.7,29.72,East,98,0.0,3.0,95,0.00,,---,0.00,0.00,VWS V14.01,2013-05-28 08:27:00,
2013-05-28 03:32:00,55.1,53.7,29.72,East,89,3.0,6.0,95,0.00,,---,0.00,0.00,VWS V14.01,2013-05-28 08:32:00,
2013-05-28 03:37:00,55.1,53.7,29.71,East,91,2.0,5.0,95,0.00,,---,0.00,0.00,VWS V14.01,2013-05-28 08:37:00,
2013-05-28 03:42:00,55.1,53.7,29.71,East,94,5.0,7.0,95,0.00,,---,0.00,0.00,VWS V14.01,2013-05-28 08:42:00,
2013-05-28 03:46:00,55.0,53.6,29.72,East,90,4.0,7.0,95,0.00,,---,0.00,0.00,VWS V14.01,2013-05-28 08:46:00,
2013-05-28 03:51:00,55.0,53.6,29.71,East,94,0.0,4.0,95,0.00,,---,0.00,0.00,VWS V14.01,2013-05-28 08:51:00,
2013-05-28 03:56:00,55.0,53.6,29.71,East,92,0.0,5.0,95,0.00,,---,0.00,0.00,VWS V14.01,2013-05-28 08:56:00,
2013-05-28 04:01:00,55.0,53.6,29.70,East,92,0.0,5.0,95,0.00,,---,0.00,0.00,VWS V14.01,2013-05-28 09:01:00,
2013-05-28 04:06:00,54.9,53.5,29.70,East,91,0.0,4.0,95,0.01,,---,0.01,0.00,VWS V14.01,2013-05-28 09:06:00,
2013-05-28 04:11:00,54.9,53.5,29.70,East,90,0.0,6.0,95,0.01,,---,0.01,0.00,VWS V14.01,2013-05-28 09:11:00,
2013-05-28 04:16:00,54.9,53.8,29.70,East,90,0.0,6.0,96,0.01,,---,0.01,0.00,VWS V14.01,2013-05-28 09:16:00,
2013-05-28 04:21:00,54.9,53.8,29.70,East,101,0.0,0.0,96,0.01,,---,0.01,0.00,VWS V14.01,2013-05-28 09:21:00,
2013-05-28 04:26:00,54.9,53.8,29.70,East,89,3.0,6.0,96,0.01,,---,0.01,0.00,VWS V14.01,2013-05-28 09:26:00,
2013-05-28 04:32:00,54.9,53.8,29.70,East,90,3.0,6.0,96,0.01,,---,0.01,0.00,VWS V14.01,2013-05-28 09:32:00,
2013-05-28 04:36:00,54.8,53.7,29.71,East,91,0.0,5.0,96,0.01,,---,0.01,0.00,VWS V14.01,2013-05-28 09:36:00,
2013-05-28 04:41:00,54.8,53.7,29.71,East,91,0.0,5.0,96,0.01,,---,0.01,0.00,VWS V14.01,2013-05-28 09:41:00,
2013-05-28 04:46:00,54.8,53.7,29.71,East,91,0.0,5.0,96,0.01,,---,0.01,0.00,VWS V14.01,2013-05-28 09:46:00,
2013-05-28 04:52:00,54.8,53.7,29.70,East,91,0.0,3.0,96,0.01,,---,0.01,0.00,VWS V14.01,2013-05-28 09:52:00,
2013-05-28 04:57:00,54.8,53.7,29.70,East,91,3.0,4.0,96,0.01,,---,0.01,0.00,VWS V14.01,2013-05-28 09:57:00,
2013-05-28 05:02:00,54.8,53.7,29.71,East,91,0.0,4.0,96,0.01,,---,0.01,0.00,VWS V14.01,2013-05-28 10:02:00,
2013-05-28 05:06:00,54.8,53.7,29.71,East,91,0.0,0.0,96,0.01,,---,0.01,0.00,VWS V14.01,2013-05-28 10:06:00,
2013-05-28 05:11:00,54.8,53.7,29.71,East,91,0.0,0.0,96,0.01,,---,0.01,0.00,VWS V14.01,2013-05-28 10:11:00,
2013-05-28 05:17:00,54.8,53.7,29.71,East,91,0.0,0.0,96,0.01,,---,0.01,0.00,VWS V14.01,2013-05-28 10:17:00,
2013-05-28 05:22:00,54.7,53.6,29.71,East,91,0.0,0.0,96,0.00,,---,0.01,0.00,VWS V14.01,2013-05-28 10:22:00,
2013-05-28 05:27:00,54.7,53.6,29.71,East,91,0.0,0.0,96,0.00,,---,0.01,0.00,VWS V14.01,2013-05-28 10:27:00,
2013-05-28 05:32:00,54.7,53.6,29.70,East,91,0.0,0.0,96,0.00,,---,0.01,0.00,VWS V14.01,2013-05-28 10:32:00,
2013-05-28 05:37:00,54.6,53.5,29.70,East,91,0.0,0.0,96,0.00,,---,0.01,0.00,VWS V14.01,2013-05-28 10:37:00,
2013-05-28 05:42:00,54.6,53.5,29.70,East,90,3.0,4.0,96,0.00,,---,0.01,0.00,VWS V14.01,2013-05-28 10:42:00,
2013-05-28 05:47:00,54.6,53.5,29.70,East,90,0.0,4.0,96,0.00,,---,0.01,0.00,VWS V14.01,2013-05-28 10:47:00,
2013-05-28 05:52:00,54.6,53.5,29.69,East,86,4.0,4.0,96,0.00,,---,0.01,0.00,VWS V14.01,2013-05-28 10:52:00,
2013-05-28 05:57:00,54.6,53.5,29.70,East,86,0.0,6.0,96,0.00,,---,0.01,0.00,VWS V14.01,2013-05-28 10:57:00,
2013-05-28 06:02:00,54.6,53.5,29.69,East,86,4.0,6.0,96,0.00,,---,0.01,0.00,VWS V14.01,2013-05-28 11:02:00,
2013-05-28 06:07:00,54.5,53.4,29.70,East,86,0.0,4.0,96,0.00,,---,0.01,0.00,VWS V14.01,2013-05-28 11:07:00,
2013-05-28 06:12:00,54.5,53.4,29.70,East,86,0.0,4.0,96,0.00,,---,0.01,0.00,VWS V14.01,2013-05-28 11:12:00,
2013-05-28 06:17:00,54.5,53.4,29.70,East,86,0.0,4.0,96,0.00,,---,0.01,0.00,VWS V14.01,2013-05-28 11:17:00,
2013-05-28 06:22:00,54.5,53.4,29.69,East,86,0.0,0.0,96,0.00,,---,0.01,7.00,VWS V14.01,2013-05-28 11:22:00,
2013-05-28 06:27:00,54.5,53.4,29.69,East,86,0.0,3.0,96,0.00,,---,0.01,12.00,VWS V14.01,2013-05-28 11:27:00,
2013-05-28 06:32:00,54.5,53.7,29.69,East,86,3.0,4.0,97,0.00,,---,0.01,14.00,VWS V14.01,2013-05-28 11:32:00,
2013-05-28 06:37:00,54.5,53.7,29.69,ENE,57,0.0,6.0,97,0.00,,---,0.01,18.00,VWS V14.01,2013-05-28 11:37:00,
2013-05-28 06:42:00,54.5,53.7,29.69,NE,53,3.0,6.0,97,0.00,,---,0.01,16.00,VWS V14.01,2013-05-28 11:42:00,
2013-05-28 06:47:00,54.5,53.7,29.69,NE,52,1.0,6.0,97,0.00,,---,0.01,25.00,VWS V14.01,2013-05-28 11:47:00,
2013-05-28 06:52:00,54.5,53.7,29.67,NE,51,0.0,0.0,97,0.00,,---,0.01,37.00,VWS V14.01,2013-05-28 11:52:00,
2013-05-28 06:57:00,54.4,53.6,29.67,NE,49,0.0,6.0,97,0.00,,---,0.01,44.00,VWS V14.01,2013-05-28 11:57:00,
2013-05-28 07:02:00,54.3,53.5,29.67,NE,48,0.0,7.0,97,0.00,,---,0.01,51.00,VWS V14.01,2013-05-28 12:02:00,
2013-05-28 07:07:00,54.2,53.1,29.67,NE,50,6.0,6.0,96,0.00,,---,0.01,53.00,VWS V14.01,2013-05-28 12:07:00,
2013-05-28 07:12:00,54.2,53.1,29.67,NE,51,3.0,7.0,96,0.00,,---,0.01,46.00,VWS V14.01,2013-05-28 12:12:00,
2013-05-28 07:17:00,54.2,53.1,29.67,NE,55,6.0,7.0,96,0.00,,---,0.01,44.00,VWS V14.01,2013-05-28 12:17:00,
2013-05-28 07:22:00,54.1,53.0,29.68,NE,54,4.0,6.0,96,0.00,,---,0.01,37.00,VWS V14.01,2013-05-28 12:22:00,
2013-05-28 07:27:00,54.0,53.2,29.67,ENE,76,0.0,6.0,97,0.00,,---,0.01,39.00,VWS V14.01,2013-05-28 12:27:00,
2013-05-28 07:32:00,54.0,53.2,29.68,ENE,73,4.0,6.0,97,0.00,,---,0.01,30.00,VWS V14.01,2013-05-28 12:32:00,
2013-05-28 07:37:00,54.0,53.2,29.68,ENE,63,4.0,6.0,97,0.00,,---,0.01,33.00,VWS V14.01,2013-05-28 12:37:00,
2013-05-28 07:42:00,53.9,53.1,29.68,ENE,63,3.0,6.0,97,0.00,,---,0.01,42.00,VWS V14.01,2013-05-28 12:42:00,
2013-05-28 07:47:00,54.0,53.2,29.69,ENE,63,3.0,6.0,97,0.00,,---,0.01,33.00,VWS V14.01,2013-05-28 12:47:00,
2013-05-28 07:52:00,53.9,53.1,29.69,ENE,63,4.0,4.0,97,0.00,,---,0.01,35.00,VWS V14.01,2013-05-28 12:52:00,
2013-05-28 07:57:00,53.9,53.1,29.68,ENE,63,3.0,5.0,97,0.00,,---,0.01,54.00,VWS V14.01,2013-05-28 12:57:00,
2013-05-28 08:02:00,54.0,53.2,29.68,ENE,63,4.0,6.0,97,0.00,,---,0.01,54.00,VWS V14.01,2013-05-28 13:02:00,
2013-05-28 08:07:00,54.0,53.2,29.68,ENE,63,2.0,5.0,97,0.00,,---,0.01,54.00,VWS V14.01,2013-05-28 13:07:00,
2013-05-28 08:12:00,54.0,53.2,29.68,ENE,63,2.0,5.0,97,0.00,,---,0.01,77.00,VWS V14.01,2013-05-28 13:12:00,
2013-05-28 08:17:00,54.1,53.3,29.68,ENE,64,5.0,6.0,97,0.00,,---,0.01,69.00,VWS V14.01,2013-05-28 13:17:00,
2013-05-28 08:22:00,54.0,53.2,29.68,ENE,69,6.0,7.0,97,0.00,,---,0.01,104.00,VWS V14.01,2013-05-28 13:22:00,
2013-05-28 08:27:00,54.0,53.2,29.68,ENE,67,4.0,9.0,97,0.00,,---,0.01,102.00,VWS V14.01,2013-05-28 13:27:00,
2013-05-28 08:32:00,54.1,53.3,29.68,ENE,76,6.0,9.0,97,0.00,,---,0.01,102.00,VWS V14.01,2013-05-28 13:32:00,
2013-05-28 08:37:00,54.1,53.3,29.68,East,79,3.0,6.0,97,0.00,,---,0.01,84.00,VWS V14.01,2013-05-28 13:37:00,
2013-05-28 08:42:00,54.2,53.4,29.67,ENE,60,9.0,9.0,97,0.00,,---,0.01,77.00,VWS V14.01,2013-05-28 13:42:00,
2013-05-28 08:47:00,54.2,53.4,29.67,ENE,61,5.0,9.0,97,0.00,,---,0.01,90.00,VWS V14.01,2013-05-28 13:47:00,
2013-05-28 08:52:00,54.3,53.5,29.68,ENE,69,4.0,6.0,97,0.00,,---,0.01,155.00,VWS V14.01,2013-05-28 13:52:00,
2013-05-28 08:57:00,54.2,53.4,29.68,East,92,5.0,7.0,97,0.00,,---,0.01,130.00,VWS V14.01,2013-05-28 13:57:00,
2013-05-28 09:02:00,54.4,53.6,29.68,East,90,0.0,7.0,97,0.00,,---,0.01,81.00,VWS V14.01,2013-05-28 14:02:00,
2013-05-28 09:07:00,54.4,53.6,29.69,ENE,78,4.0,6.0,97,0.00,,---,0.01,114.00,VWS V14.01,2013-05-28 14:07:00,
2013-05-28 09:12:00,54.4,53.6,29.68,ENE,76,4.0,6.0,97,0.00,,---,0.01,130.00,VWS V14.01,2013-05-28 14:12:00,
2013-05-28 09:17:00,54.5,53.7,29.68,East,79,5.0,7.0,97,0.00,,---,0.01,188.00,VWS V14.01,2013-05-28 14:17:00,
2013-05-28 09:22:00,54.6,53.8,29.68,East,86,3.0,6.0,97,0.00,,---,0.01,181.00,VWS V14.01,2013-05-28 14:22:00,
2013-05-28 09:27:00,54.7,53.9,29.68,ENE,75,7.0,9.0,97,0.00,,---,0.01,172.00,VWS V14.01,2013-05-28 14:27:00,
2013-05-28 09:32:00,54.9,54.1,29.67,ENE,69,3.0,10.0,97,0.00,,---,0.01,188.00,VWS V14.01,2013-05-28 14:32:00,
2013-05-28 09:37:00,54.8,54.0,29.68,East,82,6.0,9.0,97,0.00,,---,0.01,204.00,VWS V14.01,2013-05-28 14:37:00,
2013-05-28 09:42:00,54.9,54.1,29.68,East,91,1.0,10.0,97,0.00,,---,0.01,199.00,VWS V14.01,2013-05-28 14:42:00,
2013-05-28 09:47:00,54.9,54.1,29.68,East,86,6.0,10.0,97,0.00,,---,0.01,200.00,VWS V14.01,2013-05-28 14:47:00,
2013-05-28 09:52:00,54.9,54.1,29.68,East,79,7.0,9.0,97,0.00,,---,0.01,178.00,VWS V14.01,2013-05-28 14:52:00,
2013-05-28 09:57:00,55.0,54.2,29.68,East,93,4.0,9.0,97,0.00,,---,0.01,169.00,VWS V14.01,2013-05-28 14:57:00,
2013-05-28 10:02:00,55.3,54.5,29.68,East,91,6.0,9.0,97,0.00,,---,0.01,179.00,VWS V14.01,2013-05-28 15:02:00,
2013-05-28 10:07:00,55.3,54.5,29.68,ESE,105,7.0,7.0,97,0.00,,---,0.01,171.00,VWS V14.01,2013-05-28 15:07:00,
2013-05-28 10:12:00,55.5,54.7,29.68,East,98,7.0,7.0,97,0.00,,---,0.01,181.00,VWS V14.01,2013-05-28 15:12:00,
2013-05-28 10:17:00,55.5,54.7,29.68,East,86,3.0,8.0,97,0.00,,---,0.01,200.00,VWS V14.01,2013-05-28 15:17:00,
2013-05-28 10:22:00,55.7,54.9,29.67,East,85,5.0,9.0,97,0.00,,---,0.01,188.00,VWS V14.01,2013-05-28 15:22:00,
2013-05-28 10:27:00,55.7,54.9,29.67,ENE,78,6.0,10.0,97,0.00,,---,0.01,183.00,VWS V14.01,2013-05-28 15:27:00,
2013-05-28 10:32:00,55.8,55.0,29.67,East,92,4.0,10.0,97,0.00,,---,0.01,197.00,VWS V14.01,2013-05-28 15:32:00,
2013-05-28 10:37:00,55.9,55.1,29.68,ESE,108,6.0,9.0,97,0.00,,---,0.01,223.00,VWS V14.01,2013-05-28 15:37:00,
2013-05-28 10:42:00,56.1,55.3,29.69,ESE,118,7.0,9.0,97,0.00,,---,0.01,195.00,VWS V14.01,2013-05-28 15:42:00,
2013-05-28 10:47:00,56.2,55.4,29.69,SE,132,0.0,9.0,97,0.00,,---,0.01,202.00,VWS V14.01,2013-05-28 15:47:00,
2013-05-28 10:52:00,56.4,55.6,29.69,SE,130,0.0,4.0,97,0.00,,---,0.01,213.00,VWS V14.01,2013-05-28 15:52:00,
2013-05-28 10:57:00,56.6,55.8,29.70,SE,130,0.0,4.0,97,0.00,,---,0.01,214.00,VWS V14.01,2013-05-28 15:57:00,
2013-05-28 11:02:00,56.8,56.0,29.72,SSW,210,0.0,4.0,97,0.00,,---,0.01,95.00,VWS V14.01,2013-05-28 16:02:00,
2013-05-28 11:07:00,56.8,56.0,29.71,SSW,210,0.0,0.0,97,0.00,,---,0.01,207.00,VWS V14.01,2013-05-28 16:07:00,
2013-05-28 11:12:00,57.1,56.0,29.72,SSW,207,0.0,0.0,96,0.00,,---,0.01,84.00,VWS V14.01,2013-05-28 16:12:00,
2013-05-28 11:17:00,57.2,56.1,29.71,SSW,207,0.0,0.0,96,0.00,,---,0.01,183.00,VWS V14.01,2013-05-28 16:17:00,
2013-05-28 11:21:00,57.3,56.2,29.71,SSW,207,0.0,0.0,96,0.00,,---,0.01,137.00,VWS V14.01,2013-05-28 16:21:00,
2013-05-28 11:26:00,57.3,56.2,29.71,SSW,207,0.0,0.0,96,0.00,,---,0.01,193.00,VWS V14.01,2013-05-28 16:26:00,
2013-05-28 11:31:00,57.5,56.4,29.71,SSW,207,0.0,0.0,96,0.00,,---,0.01,158.00,VWS V14.01,2013-05-28 16:31:00,
2013-05-28 11:36:00,57.6,56.5,29.71,SSW,207,0.0,0.0,96,0.00,,---,0.01,165.00,VWS V14.01,2013-05-28 16:36:00,
2013-05-28 11:42:00,57.7,56.3,29.71,SSW,207,0.0,0.0,95,0.00,,---,0.01,142.00,VWS V14.01,2013-05-28 16:42:00,
2013-05-28 11:47:00,57.8,56.4,29.72,SSW,209,0.0,0.0,95,0.00,,---,0.01,123.00,VWS V14.01,2013-05-28 16:47:00,
2013-05-28 11:52:00,57.8,56.4,29.71,SSW,209,0.0,0.0,95,0.00,,---,0.01,264.00,VWS V14.01,2013-05-28 16:52:00,
2013-05-28 11:57:00,57.7,56.3,29.70,NNW,333,0.0,6.0,95,0.00,,---,0.01,200.00,VWS V14.01,2013-05-28 16:57:00,
2013-05-28 12:02:00,57.7,56.3,29.71,NNW,333,0.0,6.0,95,0.00,,---,0.01,193.00,VWS V14.01,2013-05-28 17:02:00,
2013-05-28 12:07:00,57.7,56.3,29.71,NNW,333,0.0,0.0,95,0.00,,---,0.01,163.00,VWS V14.01,2013-05-28 17:07:00,
2013-05-28 12:12:00,57.7,56.3,29.71,NNW,333,0.0,0.0,95,0.00,,---,0.01,139.00,VWS V14.01,2013-05-28 17:12:00,
2013-05-28 12:17:00,57.8,56.4,29.71,NNW,333,0.0,0.0,95,0.00,,---,0.01,248.00,VWS V14.01,2013-05-28 17:17:00,
2013-05-28 12:22:00,57.9,56.2,29.71,NNW,333,0.0,0.0,94,0.00,,---,0.01,211.00,VWS V14.01,2013-05-28 17:22:00,
2013-05-28 12:27:00,58.0,56.3,29.71,NNW,333,0.0,0.0,94,0.00,,---,0.01,179.00,VWS V14.01,2013-05-28 17:27:00,
2013-05-28 12:32:00,58.1,56.4,29.71,NNW,333,0.0,0.0,94,0.00,,---,0.01,220.00,VWS V14.01,2013-05-28 17:32:00,
2013-05-28 12:37:00,58.2,56.5,29.70,NNW,333,0.0,0.0,94,0.00,,---,0.01,239.00,VWS V14.01,2013-05-28 17:37:00,
2013-05-28 12:42:00,58.4,56.4,29.71,NNW,333,0.0,0.0,93,0.00,,---,0.01,160.00,VWS V14.01,2013-05-28 17:42:00,
2013-05-28 12:47:00,58.5,56.5,29.70,NNW,333,0.0,0.0,93,0.00,,---,0.01,144.00,VWS V14.01,2013-05-28 17:47:00,
2013-05-28 12:52:00,58.5,56.5,29.70,NNW,331,0.0,0.0,93,0.00,,---,0.01,181.00,VWS V14.01,2013-05-28 17:52:00,
2013-05-28 12:57:00,58.5,56.5,29.71,NW,326,1.0,6.0,93,0.00,,---,0.01,141.00,VWS V14.01,2013-05-28 17:57:00,
2013-05-28 13:02:00,58.5,56.2,29.71,NW,325,3.0,6.0,92,0.00,,---,0.01,109.00,VWS V14.01,2013-05-28 18:02:00,
2013-05-28 13:07:00,58.5,56.2,29.72,NW,321,3.0,6.0,92,0.00,,---,0.01,97.00,VWS V14.01,2013-05-28 18:07:00,
2013-05-28 13:12:00,58.5,56.2,29.72,NW,311,5.0,6.0,92,0.00,,---,0.01,100.00,VWS V14.01,2013-05-28 18:12:00,
2013-05-28 13:17:00,58.4,56.1,29.72,WNW,293,6.0,7.0,92,0.00,,---,0.01,84.00,VWS V14.01,2013-05-28 18:17:00,
2013-05-28 13:22:00,58.5,56.2,29.72,West,261,5.0,6.0,92,0.00,,---,0.01,90.00,VWS V14.01,2013-05-28 18:22:00,
2013-05-28 13:27:00,58.5,56.2,29.72,West,261,5.0,7.0,92,0.00,,---,0.01,84.00,VWS V14.01,2013-05-28 18:27:00,
2013-05-28 13:32:00,58.5,56.2,29.72,West,261,4.0,8.0,92,0.00,,---,0.01,95.00,VWS V14.01,2013-05-28 18:32:00,
2013-05-28 13:37:00,58.5,56.5,29.72,West,262,5.0,6.0,93,0.00,,---,0.01,91.00,VWS V14.01,2013-05-28 18:37:00,
2013-05-28 13:42:00,58.5,56.5,29.72,West,259,7.0,7.0,93,0.00,,---,0.01,88.00,VWS V14.01,2013-05-28 18:42:00,
2013-05-28 13:47:00,58.5,56.5,29.72,West,268,5.0,8.0,93,0.00,,---,0.01,93.00,VWS V14.01,2013-05-28 18:47:00,
2013-05-28 13:52:00,58.5,56.5,29.72,West,268,4.0,6.0,93,0.00,,---,0.01,91.00,VWS V14.01,2013-05-28 18:52:00,
2013-05-28 13:57:00,58.6,56.6,29.72,West,268,4.0,6.0,93,0.00,,---,0.01,95.00,VWS V14.01,2013-05-28 18:57:00,
2013-05-28 14:02:00,58.6,56.6,29.72,West,267,7.0,7.0,93,0.00,,---,0.01,100.00,VWS V14.01,2013-05-28 19:02:00,
2013-05-28 14:07:00,58.6,56.6,29.72,West,263,6.0,7.0,93,0.00,,---,0.01,83.00,VWS V14.01,2013-05-28 19:07:00,
2013-05-28 14:12:00,58.6,56.6,29.72,West,263,3.0,7.0,93,0.00,,---,0.01,90.00,VWS V14.01,2013-05-28 19:12:00,
2013-05-28 14:17:00,58.6,56.6,29.72,West,261,4.0,7.0,93,0.00,,---,0.01,86.00,VWS V14.01,2013-05-28 19:17:00,
2013-05-28 14:22:00,58.6,56.6,29.73,West,259,5.0,8.0,93,0.00,,---,0.01,76.00,VWS V14.01,2013-05-28 19:22:00,
2013-05-28 14:27:00,58.7,56.7,29.73,WSW,253,5.0,9.0,93,0.00,,---,0.01,70.00,VWS V14.01,2013-05-28 19:27:00,
2013-05-28 14:32:00,58.7,56.7,29.73,WSW,253,5.0,9.0,93,0.00,,---,0.01,76.00,VWS V14.01,2013-05-28 19:32:00,
2013-05-28 14:37:00,58.7,56.7,29.73,WSW,252,5.0,7.0,93,0.00,,---,0.01,95.00,VWS V14.01,2013-05-28 19:37:00,
2013-05-28 14:42:00,58.7,56.7,29.73,WSW,249,5.0,7.0,93,0.00,,---,0.01,121.00,VWS V14.01,2013-05-28 19:42:00,
2013-05-28 14:47:00,58.7,56.7,29.73,WNW,283,4.0,7.0,93,0.00,,---,0.01,174.00,VWS V14.01,2013-05-28 19:47:00,
2013-05-28 14:52:00,58.7,56.7,29.73,WNW,286,5.0,6.0,93,0.00,,---,0.01,137.00,VWS V14.01,2013-05-28 19:52:00,
2013-05-28 14:57:00,58.9,56.9,29.73,WNW,288,6.0,6.0,93,0.00,,---,0.01,162.00,VWS V14.01,2013-05-28 19:57:00,
2013-05-28 15:02:00,59.0,57.0,29.73,WNW,296,4.0,7.0,93,0.00,,---,0.01,151.00,VWS V14.01,2013-05-28 20:02:00,
2013-05-28 15:07:00,59.0,57.0,29.73,WNW,303,5.0,8.0,93,0.00,,---,0.01,223.00,VWS V14.01,2013-05-28 20:07:00,
2013-05-28 15:12:00,59.0,57.0,29.72,NW,320,5.0,9.0,93,0.00,,---,0.01,241.00,VWS V14.01,2013-05-28 20:12:00,
2013-05-28 15:17:00,59.0,57.0,29.71,NNW,335,5.0,10.0,93,0.00,,---,0.01,359.00,VWS V14.01,2013-05-28 20:17:00,
2013-05-28 15:22:00,59.2,57.2,29.70,NNW,334,2.0,5.0,93,0.00,,---,0.01,378.00,VWS V14.01,2013-05-28 20:22:00,
2013-05-28 15:27:00,59.6,57.6,29.71,NNW,331,5.0,6.0,93,0.00,,---,0.01,290.00,VWS V14.01,2013-05-28 20:27:00,
2013-05-28 15:32:00,59.7,57.4,29.71,NW,310,4.0,8.0,92,0.00,,---,0.01,265.00,VWS V14.01,2013-05-28 20:32:00,
2013-05-28 15:37:00,59.8,57.5,29.70,NW,323,4.0,5.0,92,0.00,,---,0.01,459.00,VWS V14.01,2013-05-28 20:37:00,
2013-05-28 15:42:00,60.0,57.4,29.71,NW,324,2.0,5.0,91,0.00,,---,0.01,220.00,VWS V14.01,2013-05-28 20:42:00,
2013-05-28 15:47:00,60.1,57.5,29.71,NW,317,0.0,5.0,91,0.00,,---,0.01,339.00,VWS V14.01,2013-05-28 20:47:00,
2013-05-28 15:52:00,60.2,57.6,29.71,NW,317,0.0,4.0,91,0.00,,---,0.01,301.00,VWS V14.01,2013-05-28 20:52:00,
2013-05-28 15:57:00,60.3,57.7,29.71,NW,317,4.0,4.0,91,0.00,,---,0.01,225.00,VWS V14.01,2013-05-28 20:57:00,
2013-05-28 16:02:00,60.3,57.4,29.72,NW,317,3.0,5.0,90,0.00,,---,0.01,190.00,VWS V14.01,2013-05-28 21:02:00,
2013-05-28 16:07:00,60.4,57.5,29.72,NW,317,3.0,5.0,90,0.00,,---,0.01,155.00,VWS V14.01,2013-05-28 21:07:00,
2013-05-28 16:12:00,60.5,57.6,29.72,NW,317,2.0,5.0,90,0.00,,---,0.01,130.00,VWS V14.01,2013-05-28 21:12:00,
2013-05-28 16:17:00,60.4,57.5,29.72,NW,318,5.0,5.0,90,0.00,,---,0.01,130.00,VWS V14.01,2013-05-28 21:17:00,
2013-05-28 16:22:00,60.5,57.6,29.71,NW,321,2.0,5.0,90,0.00,,---,0.01,186.00,VWS V14.01,2013-05-28 21:22:00,
2013-05-28 16:27:00,60.7,57.8,29.71,NNW,327,0.0,5.0,90,0.00,,---,0.01,229.00,VWS V14.01,2013-05-28 21:27:00,
2013-05-28 16:32:00,60.8,57.8,29.71,NNW,327,4.0,5.0,90,0.00,,---,0.01,241.00,VWS V14.01,2013-05-28 21:32:00,
2013-05-28 16:37:00,61.0,58.0,29.71,NNW,327,3.0,5.0,90,0.00,,---,0.01,262.00,VWS V14.01,2013-05-28 21:37:00,
2013-05-28 16:42:00,61.1,57.8,29.71,NNW,329,0.0,5.0,89,0.00,,---,0.01,276.00,VWS V14.01,2013-05-28 21:42:00,
2013-05-28 16:47:00,61.3,58.0,29.71,NNW,329,4.0,5.0,89,0.00,,---,0.01,209.00,VWS V14.01,2013-05-28 21:47:00,
2013-05-28 16:52:00,61.3,57.7,29.71,NNW,332,0.0,7.0,88,0.00,,---,0.01,221.00,VWS V14.01,2013-05-28 21:52:00,
2013-05-28 16:57:00,61.4,57.8,29.71,NNW,332,2.0,7.0,88,0.00,,---,0.01,223.00,VWS V14.01,2013-05-28 21:57:00,
2013-05-28 17:02:00,61.4,57.8,29.71,NNW,333,0.0,7.0,88,0.00,,---,0.01,176.00,VWS V14.01,2013-05-28 22:02:00,
2013-05-28 17:07:00,61.5,57.9,29.71,NNW,333,0.0,0.0,88,0.00,,---,0.01,193.00,VWS V14.01,2013-05-28 22:07:00,
2013-05-28 17:12:00,61.6,58.0,29.72,NNW,333,0.0,0.0,88,0.00,,---,0.01,202.00,VWS V14.01,2013-05-28 22:12:00,
2013-05-28 17:17:00,61.7,57.8,29.71,NNW,333,2.0,2.0,87,0.00,,---,0.01,171.00,VWS V14.01,2013-05-28 22:17:00,
2013-05-28 17:22:00,61.8,57.9,29.72,NNW,333,0.0,0.0,87,0.00,,---,0.01,105.00,VWS V14.01,2013-05-28 22:22:00,
2013-05-28 17:27:00,61.9,58.0,29.72,NNW,331,0.0,0.0,87,0.00,,---,0.01,100.00,VWS V14.01,2013-05-28 22:27:00,
2013-05-28 17:31:00,62.0,57.8,29.72,NNW,333,0.0,0.0,86,0.00,,---,0.01,118.00,VWS V14.01,2013-05-28 22:31:00,
2013-05-28 17:36:00,62.0,57.8,29.72,NNW,333,0.0,0.0,86,0.00,,---,0.01,97.00,VWS V14.01,2013-05-28 22:36:00,
2013-05-28 17:41:00,62.0,58.1,29.73,NNW,329,0.0,0.0,87,0.00,,---,0.01,70.00,VWS V14.01,2013-05-28 22:41:00,
2013-05-28 17:46:00,62.0,58.1,29.72,NW,325,0.0,4.0,87,0.00,,---,0.01,105.00,VWS V14.01,2013-05-28 22:46:00,
2013-05-28 17:51:00,62.0,58.1,29.73,NW,325,0.0,0.0,87,0.00,,---,0.01,144.00,VWS V14.01,2013-05-28 22:51:00,
2013-05-28 17:56:00,62.1,58.2,29.73,NW,317,4.0,4.0,87,0.00,,---,0.01,118.00,VWS V14.01,2013-05-28 22:56:00,
2013-05-28 18:01:00,62.1,58.2,29.73,WNW,297,3.0,5.0,87,0.00,,---,0.01,109.00,VWS V14.01,2013-05-28 23:01:00,
2013-05-28 18:06:00,62.1,58.2,29.72,WNW,296,0.0,4.0,87,0.00,,---,0.01,132.00,VWS V14.01,2013-05-28 23:06:00,
2013-05-28 18:12:00,62.2,58.3,29.72,WNW,295,3.0,4.0,87,0.00,,---,0.01,93.00,VWS V14.01,2013-05-28 23:12:00,
2013-05-28 18:17:00,62.2,58.3,29.72,WNW,295,0.0,4.0,87,0.00,,---,0.01,105.00,VWS V14.01,2013-05-28 23:17:00,
2013-05-28 18:22:00,62.3,58.4,29.72,WNW,296,0.0,0.0,87,0.00,,---,0.01,111.00,VWS V14.01,2013-05-28 23:22:00,
2013-05-28 18:27:00,62.4,58.5,29.72,WNW,296,0.0,0.0,87,0.00,,---,0.01,98.00,VWS V14.01,2013-05-28 23:27:00,
2013-05-28 18:32:00,62.4,58.5,29.72,WNW,296,0.0,0.0,87,0.00,,---,0.01,77.00,VWS V14.01,2013-05-28 23:32:00,
2013-05-28 18:37:00,62.4,58.5,29.72,WNW,294,0.0,0.0,87,0.00,,---,0.01,77.00,VWS V14.01,2013-05-28 23:37:00,
2013-05-28 18:42:00,62.4,58.2,29.72,WNW,295,0.0,0.0,86,0.00,,---,0.01,81.00,VWS V14.01,2013-05-28 23:42:00,
2013-05-28 18:47:00,62.4,58.2,29.72,WNW,295,0.0,0.0,86,0.00,,---,0.01,60.00,VWS V14.01,2013-05-28 23:47:00,
2013-05-28 18:51:00,62.4,58.2,29.71,WNW,295,0.0,0.0,86,0.00,,---,0.01,63.00,VWS V14.01,2013-05-28 23:51:00,
2013-05-28 18:56:00,62.4,58.2,29.71,WNW,296,0.0,0.0,86,0.00,,---,0.01,58.00,VWS V14.01,2013-05-28 23:56:00,
2013-05-28 19:01:00,62.4,58.2,29.71,WNW,296,0.0,0.0,86,0.00,,---,0.01,70.00,VWS V14.01,2013-05-29 00:01:00,
2013-05-28 19:06:00,62.5,58.6,29.71,WNW,296,0.0,0.0,87,0.00,,---,0.01,63.00,VWS V14.01,2013-05-29 00:06:00,
2013-05-28 19:11:00,62.5,58.3,29.71,WNW,295,0.0,0.0,86,0.00,,---,0.01,70.00,VWS V14.01,2013-05-29 00:11:00,
2013-05-28 19:16:00,62.5,58.6,29.71,WNW,296,0.0,0.0,87,0.00,,---,0.01,56.00,VWS V14.01,2013-05-29 00:16:00,
2013-05-28 19:21:00,62.6,58.4,29.71,WNW,295,0.0,0.0,86,0.00,,---,0.01,51.00,VWS V14.01,2013-05-29 00:21:00,
2013-05-28 19:26:00,62.6,58.7,29.70,WNW,295,0.0,0.0,87,0.00,,---,0.01,54.00,VWS V14.01,2013-05-29 00:26:00,
2013-05-28 19:31:00,62.6,58.7,29.71,WNW,296,0.0,0.0,87,0.00,,---,0.01,51.00,VWS V14.01,2013-05-29 00:31:00,
2013-05-28 19:36:00,62.6,58.7,29.71,WNW,296,0.0,0.0,87,0.00,,---,0.01,44.00,VWS V14.01,2013-05-29 00:36:00,
2013-05-28 19:41:00,62.6,58.4,29.71,WNW,296,0.0,0.0,86,0.00,,---,0.01,53.00,VWS V14.01,2013-05-29 00:41:00,
2013-05-28 19:46:00,62.5,58.6,29.71,WNW,295,0.0,0.0,87,0.00,,---,0.01,56.00,VWS V14.01,2013-05-29 00:46:00,
2013-05-28 19:51:00,62.4,58.5,29.70,WNW,300,2.0,3.0,87,0.00,,---,0.01,58.00,VWS V14.01,2013-05-29 00:51:00,
2013-05-28 19:56:00,62.2,58.3,29.71,NW,305,0.0,3.0,87,0.00,,---,0.01,84.00,VWS V14.01,2013-05-29 00:56:00,
2013-05-28 20:01:00,62.1,58.2,29.71,NNW,334,0.0,3.0,87,0.00,,---,0.01,56.00,VWS V14.01,2013-05-29 01:01:00,
2013-05-28 20:07:00,62.1,58.2,29.70,NNW,338,0.0,0.0,87,0.00,,---,0.01,21.00,VWS V14.01,2013-05-29 01:07:00,
2013-05-28 20:12:00,62.0,58.1,29.71,NNW,340,1.0,2.0,87,0.00,,---,0.01,37.00,VWS V14.01,2013-05-29 01:12:00,
2013-05-28 20:17:00,61.9,58.0,29.71,NNW,343,2.0,4.0,87,0.00,,---,0.01,28.00,VWS V14.01,2013-05-29 01:17:00,
2013-05-28 20:22:00,61.8,57.9,29.71,NNW,343,0.0,3.0,87,0.00,,---,0.01,23.00,VWS V14.01,2013-05-29 01:22:00,
2013-05-28 20:27:00,61.7,58.1,29.71,NNW,343,0.0,3.0,88,0.00,,---,0.01,19.00,VWS V14.01,2013-05-29 01:27:00,
2013-05-28 20:32:00,61.5,57.9,29.70,NNW,344,0.0,3.0,88,0.00,,---,0.01,18.00,VWS V14.01,2013-05-29 01:32:00,
2013-05-28 20:37:00,61.3,57.7,29.70,NNW,342,0.0,0.0,88,0.00,,---,0.01,12.00,VWS V14.01,2013-05-29 01:37:00,
2013-05-28 20:42:00,61.1,57.5,29.69,NNW,342,0.0,0.0,88,0.00,,---,0.01,9.00,VWS V14.01,2013-05-29 01:42:00,
2013-05-28 20:47:00,60.8,57.2,29.69,NNW,343,0.0,0.0,88,0.00,,---,0.01,7.00,VWS V14.01,2013-05-29 01:47:00,
2013-05-28 20:52:00,60.5,57.2,29.68,NNW,344,0.0,0.0,89,0.00,,---,0.01,0.00,VWS V14.01,2013-05-29 01:52:00,
2013-05-28 20:57:00,60.2,57.0,29.68,NNW,343,0.0,0.0,89,0.00,,---,0.01,0.00,VWS V14.01,2013-05-29 01:57:00,
2013-05-28 21:02:00,59.9,57.0,29.69,NNW,343,0.0,0.0,90,0.00,,---,0.01,0.00,VWS V14.01,2013-05-29 02:02:00,
2013-05-28 21:07:00,59.7,56.8,29.69,NNW,343,0.0,0.0,90,0.00,,---,0.01,0.00,VWS V14.01,2013-05-29 02:07:00,
2013-05-28 21:12:00,59.5,56.6,29.70,NNW,342,0.0,0.0,90,0.00,,---,0.01,0.00,VWS V14.01,2013-05-29 02:12:00,
2013-05-28 21:17:00,59.0,55.8,29.70,NNW,344,0.0,0.0,89,0.00,,---,0.01,0.00,VWS V14.01,2013-05-29 02:17:00,
2013-05-28 21:22:00,58.5,55.6,29.70,NNW,344,0.0,0.0,90,0.00,,---,0.01,0.00,VWS V14.01,2013-05-29 02:22:00,
2013-05-28 21:27:00,58.3,55.7,29.70,NNW,342,0.0,0.0,91,0.00,,---,0.01,0.00,VWS V14.01,2013-05-29 02:27:00,
2013-05-28 21:32:00,58.2,55.9,29.71,NNW,343,0.0,0.0,92,0.00,,---,0.01,0.00,VWS V14.01,2013-05-29 02:32:00,
2013-05-28 21:37:00,58.1,55.8,29.71,NNW,342,0.0,0.0,92,0.00,,---,0.01,0.00,VWS V14.01,2013-05-29 02:37:00,
2013-05-28 21:42:00,57.9,55.6,29.71,NNW,342,0.0,0.0,92,0.00,,---,0.01,0.00,VWS V14.01,2013-05-29 02:42:00,
2013-05-28 21:47:00,57.8,55.8,29.71,NNW,342,0.0,0.0,93,0.00,,---,0.01,0.00,VWS V14.01,2013-05-29 02:47:00,
2013-05-28 21:52:00,57.7,55.7,29.71,NNW,344,0.0,0.0,93,0.00,,---,0.01,0.00,VWS V14.01,2013-05-29 02:52:00,
2013-05-28 21:57:00,57.7,55.7,29.71,NNW,343,0.0,0.0,93,0.00,,---,0.01,0.00,VWS V14.01,2013-05-29 02:57:00,
2013-05-28 22:02:00,57.6,55.6,29.71,NNW,344,0.0,0.0,93,0.00,,---,0.01,0.00,VWS V14.01,2013-05-29 03:02:00,
2013-05-28 22:07:00,57.4,55.4,29.71,NNW,342,0.0,0.0,93,0.00,,---,0.01,0.00,VWS V14.01,2013-05-29 03:07:00,
2013-05-28 22:12:00,56.9,54.9,29.72,NNW,343,0.0,0.0,93,0.00,,---,0.01,0.00,VWS V14.01,2013-05-29 03:12:00,
2013-05-28 22:17:00,56.5,54.5,29.72,NNW,344,0.0,0.0,93,0.00,,---,0.01,0.00,VWS V14.01,2013-05-29 03:17:00,
2013-05-28 22:22:00,56.2,54.2,29.73,NNW,342,0.0,0.0,93,0.00,,---,0.01,0.00,VWS V14.01,2013-05-29 03:22:00,
2013-05-28 22:27:00,56.1,54.1,29.73,NNW,344,0.0,0.0,93,0.00,,---,0.01,0.00,VWS V14.01,2013-05-29 03:27:00,
2013-05-28 22:32:00,55.7,53.7,29.74,NNW,343,2.0,4.0,93,0.00,,---,0.01,0.00,VWS V14.01,2013-05-29 03:32:00,
2013-05-28 22:37:00,55.4,53.4,29.74,NNW,344,1.0,3.0,93,0.00,,---,0.01,0.00,VWS V14.01,2013-05-29 03:37:00,
2013-05-28 22:42:00,55.2,53.2,29.75,NNE,17,3.0,4.0,93,0.00,,---,0.01,0.00,VWS V14.01,2013-05-29 03:42:00,
2013-05-28 22:47:00,55.0,53.3,29.74,NE,34,3.0,5.0,94,0.00,,---,0.01,0.00,VWS V14.01,2013-05-29 03:47:00,
2013-05-28 22:52:00,55.0,53.3,29.75,NE,36,1.0,3.0,94,0.00,,---,0.01,0.00,VWS V14.01,2013-05-29 03:52:00,
2013-05-28 22:57:00,55.1,53.4,29.74,NE,38,3.0,4.0,94,0.00,,---,0.01,0.00,VWS V14.01,2013-05-29 03:57:00,
2013-05-28 23:01:00,55.2,53.8,29.74,NE,38,2.0,4.0,95,0.00,,---,0.01,0.00,VWS V14.01,2013-05-29 04:01:00,
2013-05-28 23:06:00,55.4,54.0,29.73,NE,40,3.0,4.0,95,0.00,,---,0.01,0.00,VWS V14.01,2013-05-29 04:06:00,
2013-05-28 23:11:00,55.6,54.2,29.73,NE,40,2.0,4.0,95,0.00,,---,0.01,0.00,VWS V14.01,2013-05-29 04:11:00,
2013-05-28 23:16:00,55.7,54.3,29.75,NE,40,0.0,4.0,95,0.00,,---,0.01,0.00,VWS V14.01,2013-05-29 04:16:00,
2013-05-28 23:21:00,55.6,54.2,29.74,NE,40,0.0,0.0,95,0.00,,---,0.01,0.00,VWS V14.01,2013-05-29 04:21:00,
2013-05-28 23:26:00,55.4,54.0,29.75,NE,40,0.0,0.0,95,0.00,,---,0.01,0.00,VWS V14.01,2013-05-29 04:26:00,
2013-05-28 23:31:00,55.3,53.9,29.76,NE,40,3.0,4.0,95,0.00,,---,0.01,0.00,VWS V14.01,2013-05-29 04:31:00,
2013-05-28 23:36:00,54.8,53.1,29.75,NE,42,3.0,4.0,94,0.00,,---,0.01,0.00,VWS V14.01,2013-05-29 04:36:00,
2013-05-28 23:41:00,54.7,53.3,29.75,NE,42,0.0,4.0,95,0.00,,---,0.01,0.00,VWS V14.01,2013-05-29 04:41:00,
2013-05-28 23:46:00,54.6,53.2,29.75,NE,42,0.0,4.0,95,0.00,,---,0.01,0.00,VWS V14.01,2013-05-29 04:46:00,
2013-05-28 23:51:00,54.7,53.3,29.75,NE,42,0.0,0.0,95,0.00,,---,0.01,0.00,VWS V14.01,2013-05-29 04:51:00,
2013-05-28 23:56:00,54.8,53.4,29.75,NE,42,0.0,0.0,95,0.00,,---,0.01,0.00,VWS V14.01,2013-05-29 04:56:00,